This demonstration page uses our WeatherBlox Daily Observations layout. Learn more.

Hourly Observations for December 26, 2019

Temp ( °F °C ) Dew Point ( °F °C ) Humidity (%) Winds ( mph kmh ) Pressure ( in mb ) Visibility ( mi km ) Precip ( " mm )
12:15 am 00:15 Clear 30 -1 30 -1 100 100 N 5 7 30.17 1022 10 16.0934 0 0
12:35 am 00:35 Clear 28 -2 28 -2 100 100 N 6 9 30.19 1022 10 16.0934 0 0
12:55 am 00:55 Clear 30 -1 28 -2 93 93 N 3 6 30.17 1022 10 16.0934 0 0
1:15 am 01:15 Clear 28 -2 28 -2 100 100 N 3 6 30.19 1022 10 16.0934 0 0
1:35 am 01:35 Clear 28 -2 28 -2 100 100 Calm 30.19 1022 10 16.0934 0 0
1:55 am 01:55 Clear 28 -2 28 -2 100 100 NNE 3 6 30.2 1023 10 16.0934 0 0
2:15 am 02:15 Clear 32 0 30 -1 93 93 NNE 5 7 30.19 1022 10 16.0934 0 0
2:35 am 02:35 Clear 32 0 30 -1 93 93 NNE 6 9 30.2 1023 10 16.0934 0 0
2:55 am 02:55 Clear 32 0 30 -1 93 93 NNE 5 7 30.21 1023 10 16.0934 0 0
3:15 am 03:15 Clear 32 0 30 -1 93 93 NNE 5 7 30.22 1023 10 16.0934 0 0
3:35 am 03:35 Clear 32 0 30 -1 93 93 NNE 7 11 30.22 1023 10 16.0934 0 0
3:55 am 03:55 Clear 32 0 30 -1 93 93 NNE 3 6 30.22 1023 10 16.0934 0 0
4:15 am 04:15 Clear 32 0 30 -1 93 93 Calm 30.22 1023 10 16.0934 0 0
4:35 am 04:35 Clear 32 0 30 -1 93 93 NNE 3 6 30.23 1024 10 16.0934 0 0
4:55 am 04:55 Clear 32 0 30 -1 93 93 Calm 30.23 1024 10 16.0934 0 0
5:15 am 05:15 Clear 30 -1 28 -2 93 93 N 3 6 30.23 1024 7 11.26538 0 0
5:35 am 05:35 Clear 28 -2 28 -2 100 100 Calm 30.24 1024 7 11.26538 0 0
5:55 am 05:55 Clear 30 -1 30 -1 100 100 N 3 6 30.24 1024 7 11.26538 0 0
6:15 am 06:15 Clear 28 -2 28 -2 100 100 N 3 6 30.25 1024 10 16.0934 0 0
6:35 am 06:35 Clear 28 -2 28 -2 100 100 Calm 30.25 1024 7 11.26538 0 0
6:55 am 06:55 Clear 28 -2 28 -2 100 100 Calm 30.26 1025 7 11.26538 0 0
7:15 am 07:15 Clear 28 -2 28 -2 100 100 Calm 30.26 1025 7 11.26538 0 0
7:35 am 07:35 Sunny 28 -2 28 -2 100 100 Calm 30.27 1025 5 8.0467 0 0
7:55 am 07:55 Sunny 28 -2 28 -2 100 100 Calm 30.28 1025 7 11.26538 0 0
8:15 am 08:15 Sunny 30 -1 30 -1 100 100 Calm 30.27 1025 7 11.26538 0 0
8:35 am 08:35 Sunny 30 -1 30 -1 100 100 Calm 30.28 1026 7 11.26538 0 0
8:55 am 08:55 Sunny 32 0 32 0 100 100 Calm 30.29 1026 7 11.26538 0 0
9:15 am 09:15 Sunny 34 1 32 0 93 93 Calm 30.29 1026 10 16.0934 0 0
9:35 am 09:35 Sunny 36 2 32 0 87 87 Calm 30.3 1026 10 16.0934 0 0
9:55 am 09:55 Sunny 37 3 32 0 81 81 Calm 30.3 1026 10 16.0934 0 0
10:15 am 10:15 Sunny 41 5 34 1 76 76 Calm 30.3 1026 10 16.0934 0 0
10:35 am 10:35 Sunny 41 5 34 1 76 76 Calm 30.29 1026 10 16.0934 0 0
10:55 am 10:55 Sunny 43 6 34 1 71 71 Calm 30.28 1025 10 16.0934 0 0
11:15 am 11:15 Sunny 45 7 34 1 66 66 NE 5 7 30.28 1025 10 16.0934 0 0
11:35 am 11:35 Sunny 45 7 36 2 71 71 NE 5 7 30.27 1025 10 16.0934 0 0
11:55 am 11:55 Sunny 46 8 36 2 66 66 NE 3 6 30.27 1025 10 16.0934 0 0
12:15 pm 12:15 Partly Cloudy 46 8 36 2 66 66 NE 5 7 30.27 1025 10 16.0934 0 0
12:35 pm 12:35 Cloudy 46 8 36 2 66 66 NE 3 6 30.26 1025 10 16.0934 0 0
12:55 pm 12:55 Cloudy 48 9 36 2 62 62 Calm 30.25 1024 10 16.0934 0 0
1:15 pm 13:15 Mostly Cloudy 50 10 36 2 58 58 NNE 5 7 30.25 1024 10 16.0934 0 0
1:35 pm 13:35 Partly Cloudy 52 11 36 2 54 54 NNE 3 6 30.24 1024 10 16.0934 0 0
1:55 pm 13:55 Partly Cloudy 52 11 36 2 54 54 Calm 30.24 1024 10 16.0934 0 0
2:15 pm 14:15 Sunny 52 11 36 2 54 54 Calm 30.24 1024 10 16.0934 0 0
2:35 pm 14:35 Mostly Cloudy 54 12 37 3 54 54 ESE 6 9 30.24 1024 10 16.0934 0 0
2:55 pm 14:55 Partly Cloudy 54 12 37 3 54 54 SE 6 9 30.25 1024 10 16.0934 0 0
3:15 pm 15:15 Sunny 54 12 37 3 54 54 Calm 30.25 1024 10 16.0934 0 0
3:55 pm 15:55 Sunny 55 13 37 3 51 51 ESE 5 7 30.25 1024 10 16.0934 0 0
4:15 pm 16:15 Sunny 55 13 39 4 55 55 ESE 7 11 30.26 1025 10 16.0934 0 0
4:35 pm 16:35 Sunny 54 12 37 3 54 54 ESE 5 7 30.26 1025 10 16.0934 0 0
4:55 pm 16:55 Clear 54 12 39 4 58 58 ESE 5 7 30.27 1025 10 16.0934 0 0
5:15 pm 17:15 Clear 52 11 37 3 58 58 ESE 6 9 30.28 1026 10 16.0934 0 0
5:35 pm 17:35 Clear 52 11 37 3 58 58 SE 7 11 30.28 1026 10 16.0934 0 0
5:55 pm 17:55 Clear 50 10 37 3 62 62 SE 6 9 30.29 1026 10 16.0934 0 0
6:15 pm 18:15 Clear 50 10 37 3 62 62 ESE 5 7 30.29 1026 10 16.0934 0 0
6:35 pm 18:35 Clear 50 10 37 3 62 62 SE 3 6 30.3 1026 10 16.0934 0 0
6:55 pm 18:55 Clear 48 9 37 3 66 66 SE 6 9 30.3 1026 10 16.0934 0 0
7:15 pm 19:15 Clear 48 9 37 3 66 66 ESE 3 6 30.31 1026 10 16.0934 0 0
7:35 pm 19:35 Clear 46 8 37 3 71 71 Calm 30.32 1027 10 16.0934 0 0
7:55 pm 19:55 Clear 46 8 39 4 76 76 ESE 3 6 30.32 1027 10 16.0934 0 0
8:15 pm 20:15 Clear 43 6 37 3 81 81 E 3 6 30.33 1027 10 16.0934 0 0
8:35 pm 20:35 Clear 43 6 37 3 81 81 ESE 3 6 30.33 1027 10 16.0934 0 0
8:55 pm 20:55 Clear 43 6 37 3 81 81 SE 3 6 30.33 1027 10 16.0934 0 0
9:15 pm 21:15 Partly Cloudy 43 6 37 3 81 81 Calm 30.34 1028 10 16.0934 0 0
9:35 pm 21:35 Cloudy 41 5 37 3 87 87 SE 3 6 30.33 1027 10 16.0934 0 0
9:55 pm 21:55 Cloudy 41 5 37 3 87 87 SE 5 7 30.34 1028 10 16.0934 0 0
10:15 pm 22:15 Partly Cloudy 39 4 36 2 87 87 Calm 30.35 1028 10 16.0934 0 0
10:35 pm 22:35 Clear 37 3 36 2 93 93 Calm 30.35 1028 10 16.0934 0 0
10:55 pm 22:55 Clear 37 3 36 2 93 93 Calm 30.35 1028 10 16.0934 0 0
11:15 pm 23:15 Clear 36 2 36 2 100 100 SSE 5 7 30.35 1028 10 16.0934 0 0
11:35 pm 23:35 Partly Cloudy 36 2 36 2 100 100 Calm 30.35 1028 10 16.0934 0 0
11:55 pm 23:55 Mostly Cloudy 36 2 34 1 93 93 S 3 6 30.35 1028 10 16.0934 0 0

Powered by AerisWeather